Simultaneous Nadir Overpasses (SNOs) Predictions

Prediction of SNOs between NOAA-19 and TERRA Satellite Orbit:

Table of predicted SNOs for the next 14.0 days since TLE Epoch: 6/17/2023
Index Date (NOAA-19) Time (NOAA-19) Lat,Lon (NOAA-19) SZA (NOAA-19 ) Date (TERRA) Time (TERRA) Lat,Lon (TERRA) SZA (TERRA ) Distance(km) Time Diff (sec)
1 06/17/2023 05:38:06 -80.91, -51.00 120.90 06/17/2023 05:38:09 -80.91, -50.97 120.90 0.67 3
2 06/19/2023 09:28:39 80.91, 71.41 59.04 06/19/2023 09:28:25 80.91, 71.46 59.05 1.13 14
3 06/21/2023 12:28:12 80.89, 25.76 58.94 06/21/2023 12:29:20 80.89, 25.90 58.97 2.52 68
4 06/21/2023 13:19:06 -80.91,-166.16 120.98 06/21/2023 13:18:42 -80.92,-166.12 120.98 1.10 24
5 06/23/2023 16:18:38 -80.90, 148.36 121.04 06/23/2023 16:19:37 -80.88, 148.25 121.04 2.50 59
6 06/23/2023 17:09:40 80.90, -43.94 59.01 06/23/2023 17:08:58 80.89, -44.00 58.98 1.74 42
7 06/25/2023 20:09:11 80.90, -88.98 59.03 06/25/2023 20:09:51 80.90, -89.09 59.03 2.06 40
8 06/25/2023 21:00:06 -80.90, 78.47 120.96 06/25/2023 20:59:14 -80.91, 78.62 120.96 2.66 52
9 06/27/2023 23:59:37 -80.90, 33.26 120.93 06/28/2023 00:00:08 -80.89, 33.10 120.94 3.10 31
10 06/28/2023 00:50:39 80.91,-158.81 59.15 06/28/2023 00:49:28 80.92,-158.87 59.12 1.35 71



Historial Predications of SNOs between NOAA-19 and TERRA
